STARLINK-35267 (65592 NORAD) Tracking and Keplerian Element Data

This shows tracking and keplerian element data for the satellite.

Feedback or suggestion? Click here.




ElementValue
Catalog65592
NameSTARLINK-35267
Epoch Orbit589
Epoch Day354.25003472
Epoch Year2025
RAAN60.1866
Inclination97.6019
Eccentricity0.0001672
Argument of Perigee65.3222
Mean Anonmoly35.567
Mean Motion15.26979016
Decay Rate-0.02485741
L11 65592U 25207A 25354.25003472 -.02485741 00000+0 -10449+0 0 9994
L22 65592 97.6019 60.1866 0001672 65.3222 35.5670 15.26979016 5898



Live tracking and technical data element details for STARLINK-35267 (NORAD 65592). STARLINK-35267 can be tracked NOW for your location showing map with azimuth and elevation plus other details from your city location.







IsCatalogInMostPopularTable: catalog: 65592, numindb: 6
Update: records affected: 1



GetName: 65592 STARLINK-35267

Hit Count: updated at: Mon, 20 Apr 2026 10:46:56 GMT